Вернуться в каталог

ONEWEB-0146

АктивенСвязьPO
NORAD 47292·PAYLOAD·🇬🇧 United Kingdom

Запущен Dec 18, 2020 с Vostochny Cosmodrome

Loading…

Ближайшие Пролёты (ближайшие 24 часа)

TLE

СвежийSource: CelesTrak SupGP

Эпоха: Sep 14, 2026, 20:16 UTC

1 47292C 20100AL  26257.84463380 -.00001845  00000+0 -51357-2 0  2574
2 47292  87.8980 332.8654 0002248 100.0295 299.3661 13.12440166    15

Отслеживайте ONEWEB-0146 в реальном времени с AllMySat

Download on the App Store